Miami, FL

11:01 PM EDT on October 17, 2018 (GMT -0400)
Miami International

Weather History for KMIA - February, 2018

Change the Weather History Date:

Wednesday, February 14, 2018

  Actual Average Record
Temperature  
Mean Temperature 78 °F 70 °F  
Max Temperature 83 °F 78 °F 89 °F (1948)
Min Temperature 72 °F 62 °F 29 °F (1899)
Degree Days  
Heating Degree Days 0 1  
Month to date heating degree days 0 14  
Since 1 July heating degree days 78 104  
Cooling Degree Days 13 6  
Month to date cooling degree days 161 78  
Year to date cooling degree days 313 229  
Growing Degree Days 28 (Base 50)    
Moisture  
Dew Point 65 °F    
Average Humidity 69    
Maximum Humidity 87    
Minimum Humidity 51    
Precipitation  
Precipitation 0.00 in 0.09 in 1.58 in (1977)
Month to date precipitation 0.16 1.13  
Year to date precipitation 1.17 2.75  
Snow  
Snow 0.00 in - - ()
Month to date snowfall 0.0  
Since 1 July snowfall 0.0  
Snow Depth 0.00 in    
Sea Level Pressure  
Sea Level Pressure 30.33 in    
Wind  
Wind Speed 10 mph (East)    
Max Wind Speed 18 mph    
Max Gust Speed 22 mph    
Visibility 10 miles    
Events      
T = Trace of Precipitation, MM = Missing Value Source: NWS Daily Summary

Daily Weather History Graph

Daily Weather History Graph

Search for Another Location

Airport or City:

Astronomy

Feb. 14, 2018 Rise Set
Actual Time 6:57 AM EST 6:13 PM EST
Civil Twilight 6:33 AM EST 6:37 PM EST
Nautical Twilight 6:06 AM EST 7:04 PM EST
Astronomical Twilight 5:39 AM EST 7:31 PM EST
Moon 6:07 AM EST (2/14) 5:21 PM EST (2/14)
Length of Visible Light 12h 04m
Length of Day
11h 16m
Waning Crescent, 1% of the Moon is Illuminated
Feb 14
Waning Crescent
Feb 15
New
Feb 23
First Quarter
Mar 1
Full
Mar 9
Last Quarter

Hourly Weather History & Observations

Time (EST) Temp. Heat Index Dew Point Humidity Pressure Visibility Wind Dir Wind Speed Gust Speed Precip Events Conditions
12:53 AM 73.9 °F - 69.1 °F 85% 30.35 in 10.0 mi East 5.8 mph - N/A   Scattered Clouds
1:53 AM 75.0 °F - 68.0 °F 79% 30.34 in 10.0 mi East 9.2 mph - N/A   Scattered Clouds
2:53 AM 73.9 °F - 68.0 °F 82% 30.33 in 10.0 mi East 5.8 mph - N/A   Mostly Cloudy
3:53 AM 73.9 °F - 66.9 °F 79% 30.33 in 10.0 mi East 5.8 mph - N/A   Scattered Clouds
4:53 AM 73.9 °F - 66.9 °F 79% 30.32 in 10.0 mi East 6.9 mph - N/A   Scattered Clouds
5:53 AM 73.9 °F - 68.0 °F 82% 30.33 in 10.0 mi East 6.9 mph - N/A   Scattered Clouds
6:53 AM 73.0 °F - 66.9 °F 81% 30.35 in 10.0 mi East 6.9 mph - N/A   Scattered Clouds
7:48 AM 75.2 °F - 69.8 °F 83% 30.36 in 10.0 mi ENE 4.6 mph - N/A   Mostly Cloudy
7:53 AM 77.0 °F - 69.1 °F 76% 30.36 in 10.0 mi SE 9.2 mph - N/A   Mostly Cloudy
8:12 AM 77.0 °F - 68.0 °F 74% 30.36 in 10.0 mi ESE 10.4 mph - N/A   Scattered Clouds
8:53 AM 77.0 °F - 66.0 °F 69% 30.38 in 10.0 mi ESE 10.4 mph - N/A   Scattered Clouds
9:53 AM 80.1 °F 81.9 °F 64.9 °F 60% 30.38 in 10.0 mi East 13.8 mph - N/A   Scattered Clouds
10:53 AM 81.0 °F 83.0 °F 66.0 °F 60% 30.38 in 10.0 mi ESE 13.8 mph - N/A   Mostly Cloudy
11:53 AM 81.0 °F 82.5 °F 64.0 °F 56% 30.36 in 10.0 mi East 15.0 mph - N/A   Scattered Clouds
12:53 PM 82.9 °F 84.6 °F 64.9 °F 54% 30.34 in 10.0 mi East 13.8 mph - N/A   Mostly Cloudy
1:53 PM 82.9 °F 83.7 °F 62.1 °F 49% 30.32 in 10.0 mi East 12.7 mph - N/A   Partly Cloudy
2:53 PM 82.0 °F 83.0 °F 62.1 °F 51% 30.30 in 10.0 mi East 13.8 mph - N/A   Partly Cloudy
3:53 PM 82.0 °F 83.0 °F 62.1 °F 51% 30.30 in 10.0 mi ESE 10.4 mph - N/A   Partly Cloudy
4:53 PM 80.1 °F 81.2 °F 62.1 °F 54% 30.30 in 10.0 mi ENE 11.5 mph - N/A   Partly Cloudy
5:53 PM 78.1 °F - 62.1 °F 58% 30.31 in 10.0 mi ENE 9.2 mph - N/A   Partly Cloudy
6:53 PM 77.0 °F - 61.0 °F 58% 30.30 in 10.0 mi East 13.8 mph - N/A   Partly Cloudy
7:53 PM 75.9 °F - 63.0 °F 64% 30.30 in 10.0 mi East 11.5 mph - N/A   Clear
8:53 PM 75.0 °F - 64.0 °F 69% 30.31 in 10.0 mi East 9.2 mph - N/A   Clear
9:53 PM 75.0 °F - 64.0 °F 69% 30.32 in 10.0 mi East 10.4 mph - N/A   Partly Cloudy
10:53 PM 75.0 °F - 64.0 °F 69% 30.32 in 10.0 mi ENE 10.4 mph - N/A   Partly Cloudy
11:53 PM 75.0 °F - 63.0 °F 66% 30.32 in 10.0 mi ENE 9.2 mph - N/A   Partly Cloudy